When you browse on this site, cookies collect data to enhance your experience and personalize the content and advertising you see.
Visit our Privacy Policy to learn more. By continuing to use the site, you agree to this use of cookies and data.
  • In United Kingdom
  • List of Countries
  • For 7 days
  • Water Temperature
  • Weather Map
  • Weather Widgets
  • user-avatar
    Login

    Hourly Weather Kitzbuhel

    Today, 20 August, Tuesday

    Time Temperature Precipitation Wind Pressure Humidity
    00:00 +15°C° 0.2 mm 0 mps 681 mmHg 96%
    01:00 +15°C° 0 mm 0 mps 681 mmHg 98%
    02:00 +15°C° 0.4 mm 0 mps 681 mmHg 97%
    03:00 +15°C° 0.4 mm 0 mps 681 mmHg 97%
    04:00 +15°C° 0.4 mm 0 mps 681 mmHg 97%
    05:00 +15°C° 0.6 mm 0 mps 681 mmHg 98%
    06:00 +15°C° 0.6 mm 0 mps 681 mmHg 98%
    07:00 +16°C° 0 mm 0 mps 681 mmHg 96%
    08:00 +17°C° 0.2 mm 0 mps 681 mmHg 91%
    09:00 +21°C° 0.2 mm 1 mps 681 mmHg 87%
    10:00 +22°C° 0.2 mm 1 mps 681 mmHg 82%
    11:00 +22°C° 0.5 mm 1 mps 681 mmHg 80%
    12:00 +23°C° 0.5 mm 1 mps 681 mmHg 77%
    13:00 +23°C° 0.5 mm 1 mps 681 mmHg 75%
    14:00 +22°C° 0.9 mm 1 mps 681 mmHg 81%
    15:00 +20°C° 0.9 mm 2 mps 681 mmHg 88%
    16:00 +19°C° 0.9 mm 2 mps 680 mmHg 94%
    17:00 +18°C° 0.7 mm 2 mps 681 mmHg 95%
    18:00 +18°C° 0.7 mm 1 mps 681 mmHg 97%
    19:00 +16°C° 0.7 mm 1 mps 681 mmHg 98%
    20:00 +15°C° 0.5 mm 1 mps 681 mmHg 98%
    21:00 +15°C° 0.5 mm 2 mps 681 mmHg 99%
    22:00 +14°C° 0.5 mm 2 mps 682 mmHg 99%
    23:00 +14°C° 0.8 mm 2 mps 682 mmHg 99%

    Tomorrow, 21 August, Wednesday

    Time Temperature Precipitation Wind Pressure Humidity
    00:00 +13°C° 0.8 mm 2 mps 682 mmHg 99%
    01:00 +12°C° 0.8 mm 2 mps 682 mmHg 99%
    02:00 +12°C° 0.8 mm 2 mps 683 mmHg 99%
    03:00 +12°C° 0.8 mm 1 mps 683 mmHg 99%
    04:00 +11°C° 0.8 mm 1 mps 683 mmHg 99%
    05:00 +11°C° 0.3 mm 1 mps 683 mmHg 99%
    06:00 +11°C° 0.3 mm 1 mps 683 mmHg 98%
    07:00 +11°C° 0.3 mm 1 mps 683 mmHg 98%
    08:00 +12°C° 0.1 mm 1 mps 683 mmHg 97%
    09:00 +13°C° 0.1 mm 1 mps 683 mmHg 95%
    10:00 +13°C° 0.1 mm 1 mps 684 mmHg 93%
    11:00 +14°C° 0 mm 1 mps 684 mmHg 88%
    12:00 +16°C° 0 mm 1 mps 684 mmHg 83%
    13:00 +18°C° 0 mm 1 mps 684 mmHg 77%
    14:00 +18°C° 0.1 mm 1 mps 683 mmHg 77%
    15:00 +18°C° 0.1 mm 1 mps 683 mmHg 76%
    16:00 +18°C° 0.1 mm 2 mps 683 mmHg 75%
    17:00 +18°C° 0.1 mm 1 mps 683 mmHg 81%
    18:00 +16°C° 0.1 mm 1 mps 683 mmHg 86%
    19:00 +15°C° 0.1 mm 1 mps 683 mmHg 92%
    20:00 +14°C° 0.1 mm 1 mps 683 mmHg 93%
    21:00 +13°C° 0.1 mm 0 mps 683 mmHg 95%
    22:00 +12°C° 0.1 mm 0 mps 683 mmHg 97%
    23:00 +12°C° 0.1 mm 0 mps 683 mmHg 96%

    Day after tomorrow, 22 August, Thursday

    Time Temperature Precipitation Wind Pressure Humidity
    00:00 +12°C° 0.1 mm 0 mps 683 mmHg 95%
    01:00 +12°C° 0.1 mm 0 mps 682 mmHg 95%
    02:00 +12°C° 0.3 mm 0 mps 682 mmHg 95%
    03:00 +12°C° 0.3 mm 0 mps 682 mmHg 95%
    04:00 +11°C° 0.3 mm 0 mps 681 mmHg 95%
    05:00 +12°C° 0.2 mm 0 mps 682 mmHg 93%
    06:00 +13°C° 0.2 mm 0 mps 682 mmHg 92%
    07:00 +14°C° 0.2 mm 0 mps 683 mmHg 91%
    08:00 +16°C° 0.1 mm 0 mps 683 mmHg 84%
    09:00 +20°C° 0.1 mm 1 mps 683 mmHg 78%
    10:00 +22°C° 0.1 mm 1 mps 684 mmHg 72%
    11:00 +22°C° 0.3 mm 1 mps 684 mmHg 70%
    12:00 +23°C° 0.3 mm 1 mps 684 mmHg 68%
    13:00 +24°C° 0.3 mm 2 mps 683 mmHg 67%
    14:00 +23°C° 0.6 mm 2 mps 683 mmHg 69%
    15:00 +23°C° 0.6 mm 2 mps 683 mmHg 72%
    16:00 +23°C° 0.6 mm 2 mps 683 mmHg 74%
    17:00 +21°C° 0.4 mm 1 mps 683 mmHg 81%
    18:00 +19°C° 0.4 mm 1 mps 682 mmHg 88%
    19:00 +18°C° 0.4 mm 1 mps 682 mmHg 95%
    20:00 +15°C° 0.1 mm 0 mps 683 mmHg 95%
    21:00 +14°C° 0.1 mm 0 mps 683 mmHg 95%
    22:00 +13°C° 0.1 mm 0 mps 683 mmHg 95%
    23:00 +13°C° 0 mm 0 mps 683 mmHg 95%

    23 August, Friday

    Time Temperature Precipitation Wind Pressure Humidity
    00:00 +13°C° 0 mm 0 mps 683 mmHg 94%
    01:00 +13°C° 0 mm 0 mps 683 mmHg 94%
    02:00 +14°C° 0 mm 1 mps 682 mmHg 93%
    03:00 +14°C° 0 mm 1 mps 682 mmHg 93%
    04:00 +14°C° 0 mm 1 mps 682 mmHg 92%
    05:00 +14°C° 0 mm 0 mps 682 mmHg 91%
    06:00 +15°C° 0 mm 0 mps 683 mmHg 89%
    07:00 +15°C° 0 mm 0 mps 683 mmHg 88%
    08:00 +18°C° 0 mm 0 mps 683 mmHg 80%
    09:00 +22°C° 0 mm 1 mps 684 mmHg 72%
    10:00 +24°C° 0 mm 1 mps 684 mmHg 64%
    11:00 +24°C° 0.3 mm 1 mps 684 mmHg 63%
    12:00 +25°C° 0.3 mm 1 mps 684 mmHg 63%
    13:00 +25°C° 0.3 mm 1 mps 684 mmHg 63%
    14:00 +24°C° 1.2 mm 1 mps 683 mmHg 71%
    15:00 +23°C° 1.2 mm 1 mps 683 mmHg 79%
    16:00 +22°C° 1.2 mm 1 mps 682 mmHg 86%
    17:00 +21°C° 0.5 mm 1 mps 682 mmHg 89%
    18:00 +20°C° 0.5 mm 1 mps 682 mmHg 91%
    19:00 +17°C° 0.5 mm 0 mps 682 mmHg 93%
    20:00 +18°C° 0.1 mm 1 mps 682 mmHg 92%
    21:00 +18°C° 0.1 mm 1 mps 682 mmHg 91%
    22:00 +16°C° 0.1 mm 1 mps 682 mmHg 90%
    23:00 +16°C° 0 mm 1 mps 682 mmHg 90%

    24 August, Saturday

    Time Temperature Precipitation Wind Pressure Humidity
    00:00 +16°C° 0 mm 1 mps 682 mmHg 89%
    01:00 +15°C° 0 mm 1 mps 681 mmHg 88%
    02:00 +15°C° 0 mm 1 mps 681 mmHg 87%
    03:00 +15°C° 0 mm 1 mps 681 mmHg 86%
    04:00 +15°C° 0 mm 1 mps 681 mmHg 85%
    05:00 +16°C° 0 mm 1 mps 681 mmHg 84%
    06:00 +18°C° 0 mm 1 mps 681 mmHg 82%
    07:00 +18°C° 0 mm 1 mps 681 mmHg 81%
    08:00 +21°C° 0 mm 1 mps 682 mmHg 72%
    09:00 +23°C° 0 mm 1 mps 682 mmHg 63%
    10:00 +25°C° 0 mm 1 mps 683 mmHg 54%
    11:00 +26°C° 0.2 mm 1 mps 682 mmHg 54%
    12:00 +26°C° 0.2 mm 1 mps 682 mmHg 54%
    13:00 +27°C° 0.2 mm 2 mps 682 mmHg 54%
    14:00 +26°C° 1.2 mm 1 mps 682 mmHg 62%
    15:00 +25°C° 1.2 mm 1 mps 681 mmHg 71%
    16:00 +24°C° 1.2 mm 1 mps 681 mmHg 79%
    17:00 +22°C° 0.8 mm 1 mps 680 mmHg 83%
    18:00 +21°C° 0.8 mm 1 mps 680 mmHg 87%
    19:00 +19°C° 0.8 mm 1 mps 680 mmHg 91%
    20:00 +18°C° 0 mm 1 mps 680 mmHg 90%
    21:00 +18°C° 0 mm 1 mps 680 mmHg 89%
    22:00 +16°C° 0 mm 1 mps 680 mmHg 89%
    23:00 +16°C° 0 mm 1 mps 680 mmHg 88%

    25 August, Sunday

    Time Temperature Precipitation Wind Pressure Humidity
    00:00 +15°C° 0 mm 1 mps 680 mmHg 88%
    01:00 +15°C° 0 mm 1 mps 680 mmHg 88%
    02:00 +15°C° 0 mm 1 mps 679 mmHg 88%
    03:00 +14°C° 0 mm 1 mps 679 mmHg 88%
    04:00 +14°C° 0 mm 1 mps 679 mmHg 88%
    05:00 +15°C° 0 mm 1 mps 680 mmHg 86%
    06:00 +16°C° 0 mm 1 mps 680 mmHg 85%
    07:00 +19°C° 0 mm 1 mps 680 mmHg 83%
    08:00 +21°C° 0 mm 1 mps 681 mmHg 75%
    09:00 +23°C° 0 mm 1 mps 681 mmHg 66%
    10:00 +25°C° 0 mm 1 mps 682 mmHg 58%
    11:00 +26°C° 0.7 mm 1 mps 682 mmHg 58%
    12:00 +26°C° 0.7 mm 1 mps 681 mmHg 59%
    13:00 +26°C° 0.7 mm 2 mps 681 mmHg 59%
    14:00 +26°C° 1.4 mm 2 mps 681 mmHg 65%
    15:00 +25°C° 1.4 mm 1 mps 681 mmHg 71%
    16:00 +24°C° 1.4 mm 1 mps 680 mmHg 78%
    17:00 +23°C° 1.2 mm 1 mps 680 mmHg 82%
    18:00 +21°C° 1.2 mm 1 mps 680 mmHg 86%
    19:00 +17°C° 1.2 mm 0 mps 680 mmHg 91%
    20:00 +17°C° 0.1 mm 0 mps 680 mmHg 91%
    21:00 +18°C° 0.1 mm 1 mps 680 mmHg 91%
    22:00 +16°C° 0.1 mm 1 mps 680 mmHg 92%
    23:00 +16°C° 0 mm 1 mps 680 mmHg 92%
    Show more